Lexington Weather

Lexington, Massachusetts, USA

69°F
8/17/2022 7:20pm 
  • Lexington Conditions: Overcast
  • Temperature: 69.4°F / 20.8°CColder 0.8°F than last hour.
  • Dew Point: 57.2°FDecreased 1.4°Fsince last hour.
  • Relative Humidity: 65%Decreased 2.0% since last hour.
  • Wind: Calm, 10-min avg: Calm, gust: None
  • Barometer: 29.84 in Steady
  • Visibility: 10 miles
  • Rain Today: 0.00 in
  •   

Regional Weather Roundup
for Boston, MA

        
000
ASUS41 KBOX 110310
RWRBOX

REGIONAL WEATHER ROUNDUP
NATIONAL WEATHER SERVICE BOSTON/NORTON MA
1100 PM EDT WED AUG 10 2022

NOTE:  "FAIR" INDICATES FEW OR NO CLOUDS BELOW 12,000 FEET WITH NO 
SIGNIFICANT WEATHER AND/OR OBSTRUCTIONS TO VISIBILITY.

MAZALL-110400-
EASTERN MASSACHUSETTS
  
CITY           SKY/WX    TMP DP  RH WIND       PRES   REMARKS
BOSTON         MOCLDY    66  63  90 SE6       30.01F                  
BEVERLY        CLOUDY    66  63  90 S3        30.00F                  
LAWRENCE       MOCLDY    67  62  84 CALM      30.03F                  
BEDFORD        CLOUDY    68  63  84 SE5       29.99F                  
BLUE HILL      NOT AVBL                                               
NORWOOD        MOCLDY    68  63  84 CALM      30.00F                  
MARSHFIELD     CLOUDY    68  64  88 CALM      30.01F                  
PLYMOUTH       CLOUDY    69  65  86 CALM      30.01F                  
TAUNTON        CLOUDY    68  64  87 CALM      30.01S                  
NEW BEDFORD    CLOUDY    69  67  93 CALM      30.00F                  
$$

MAZALL-110400-
CAPE COD AND THE ISLANDS
  
CITY           SKY/WX    TMP DP  RH WIND       PRES   REMARKS
FALMOUTH       CLOUDY    68  66  94 NE6       30.02S                  
HYANNIS        CLOUDY    71  65  81 NE3       29.98F                  
CHATHAM        CLOUDY    71  65  81 CALM      30.01F                  
NANTUCKET      CLOUDY    72  69  90 CALM      30.00F                  
MARTHAS VNYRD  CLOUDY    71  68  90 SE6       30.00F                  
$$
 
MAZALL-110400-
CENTRAL AND WESTERN MASSACHUSETTS
  
CITY           SKY/WX    TMP DP  RH WIND       PRES   REMARKS
WORCESTER      MOCLDY    68  62  81 E5        30.02F                  
FITCHBURG      NOT AVBL                                               
ORANGE         MOCLDY    67  63  87 CALM      30.01F                  
SPRINGFIELD    PTCLDY    69  61  75 CALM      29.97S                  
WESTFIELD      CLOUDY    69  60  73 CALM      30.00S                  
NORTH ADAMS    MOCLDY    64  61  90 N5        30.01F                  
PITTSFIELD     MOCLDY    65  59  81 CALM      30.02F                  
$$
 
RIZALL-110400-
RHODE ISLAND
  
CITY           SKY/WX    TMP DP  RH WIND       PRES   REMARKS
PROVIDENCE     CLOUDY    72  67  84 SW6       30.01F                  
NEWPORT        CLOUDY    70  68  93 S6        30.00F                  
BLOCK ISLAND   CLOUDY    70  68  93 CALM      30.01S                  
SMITHFIELD     CLOUDY    70  67  90 CALM      30.02F                  
WESTERLY       CLOUDY    72  69  90 CALM      30.00F                  
$$
 
CTZALL-110400-
CONNECTICUT
  
CITY           SKY/WX    TMP DP  RH WIND       PRES   REMARKS
BRADLEY INTL   MOCLDY    73  61  65 NW3       29.99F                  
HARTFORD       CLEAR     75  67  76 SE3       29.98F                  
BRIDGEPORT     PTCLDY    75  71  87 S7        29.98F                  
DANBURY        CLEAR     73  68  84 CALM      30.00F                  
GROTON         CLOUDY    74  69  85 S5        29.99F                  
NEW HAVEN      CLOUDY    76  72  87 S5        29.99S                  
CHESTER        CLOUDY   N/A N/A N/A CALM      30.01S                  
MERIDEN        CLOUDY    75  68  78 SE3       29.98F                  
WILLIMANTIC    CLOUDY    71  68  90 S6        30.01F                  
OXFORD         PTCLDY    72  69  90 CALM      30.02S                  
$$

MEZ002-015-021-024-NHZ003-005-008-011-012-014-VTZ005-008-110400-
NORTHERN NEW ENGLAND
  
CITY           SKY/WX    TMP DP  RH WIND       PRES   REMARKS
PORTLAND ME    PTCLDY    64  60  87 CALM      30.01F                  
BANGOR ME      CLOUDY    66  60  81 S5        30.00S                  
CONCORD NH     PTCLDY    64  61  90 CALM      30.01F                  
MANCHESTER NH  MOCLDY    68  60  75 SE3       30.00F                  
NASHUA NH      CLOUDY    70  65  84 SE3       30.01F                  
PORTSMOUTH NH  MOCLDY    64  60  85 CALM      30.01F                  
JAFFREY NH     MOCLDY    69  63  81 SE3       30.03F                  
KEENE NH       CLOUDY    68  65  90 CALM        N/A                   
BURLINGTON VT  MOCLDY    68  61  78 CALM      29.99F                  
MT. WASHINGTON MOCLDY    48  43  81 SW10        N/A                   
$$

NYZ052-076-110400-
EASTERN NEW YORK
  
CITY           SKY/WX    TMP DP  RH WIND       PRES   REMARKS
ALBANY         MOCLDY    73  60  63 CALM      30.00F                  
NEW YORK CITY  MOCLDY    78  67  68 S9        29.97F                  
$$
 
ANZALL-110400-
MARINE OBSERVATIONS
  
STATION/POSITION TIME  TEMP    WIND        PRES    VSBY  WAVE
                       AIR SEA DIR/SP/G                  HT/PER
                 (UTC) (F)     (DEG/KT/KT) (MB)    (MI)  (FT/S)
BOSTON BUOY      NOT AVBL
BUZZARDS BAY     NOT AVBL
NANTUCKET SOUND  NOT AVBL
MASS BAY-STELLWA NOT AVBL
ISLE OF SHOALS   NOT AVBL
S OF BLOCK IS    NOT AVBL
$$

......................KEY.........................
  SKY/WX - SKY CONDITION/PRESENT WEATHER
  TMP    - TEMPERATURE IN FAHRENHEIT
  DWPT   - DEWPOINT IN FAHRENHEIT
  RH     - RELATIVE HUMIDITY IN PERCENT
  WIND   - DIRECTION AND SPEED IN MPH
  PRES   - MEAN SEA LEVEL PRESSURE IN INCHES OF HG
  WCI    - WIND CHILL INDEX
  VSB    - VISIBILITY IN MILES
  HX     - HEAT INDEX
  TC     - TEMPERATURE IN CELSIUS
  VRB    - VARIABLE WIND DIRECTION
  N/A    - NOT AVAILABLE
  
      

Other recent Regional Weather Roundups

Wed Aug 17, 7:10pm

Wed Aug 17, 6:10pm

Wed Aug 17, 5:10pm

Wed Aug 17, 4:10pm

Wed Aug 17, 3:10pm

Wed Aug 17, 2:10pm

Wed Aug 17, 1:10pm

Wed Aug 17, 12:10pm

Wed Aug 17, 11:10am

Wed Aug 17, 10:10am

Wed Aug 17, 9:10am

Wed Aug 17, 8:10am

Wed Aug 17, 7:10am

Wed Aug 17, 6:10am

Wed Aug 17, 5:10am

Wed Aug 17, 4:10am

Wed Aug 17, 3:10am

Wed Aug 17, 2:10am

Wed Aug 17, 1:10am

Wed Aug 17, 12:10am

Tue Aug 16, 11:10pm

Tue Aug 16, 10:10pm

Tue Aug 16, 9:10pm

Tue Aug 16, 8:10pm

Tue Aug 16, 7:10pm

Tue Aug 16, 6:10pm

Tue Aug 16, 5:10pm

Tue Aug 16, 4:10pm

Tue Aug 16, 3:10pm

Tue Aug 16, 2:10pm

Tue Aug 16, 1:10pm

Tue Aug 16, 12:10pm

Tue Aug 16, 11:10am

Tue Aug 16, 10:10am

Tue Aug 16, 9:10am

Tue Aug 16, 8:10am

Tue Aug 16, 7:10am

Tue Aug 16, 6:10am

Tue Aug 16, 5:10am

Tue Aug 16, 4:10am

Tue Aug 16, 3:10am

Tue Aug 16, 2:10am

Tue Aug 16, 1:10am

Tue Aug 16, 12:10am

Mon Aug 15, 11:10pm

Mon Aug 15, 10:10pm

Mon Aug 15, 9:10pm

Mon Aug 15, 8:10pm

Mon Aug 15, 7:10pm

Mon Aug 15, 6:10pm

Mon Aug 15, 5:10pm

Mon Aug 15, 4:10pm

Mon Aug 15, 3:10pm

Mon Aug 15, 2:10pm

Mon Aug 15, 1:10pm

Mon Aug 15, 12:10pm

Mon Aug 15, 11:10am

Mon Aug 15, 10:10am

Mon Aug 15, 9:10am

Mon Aug 15, 8:10am

Mon Aug 15, 7:10am

Mon Aug 15, 6:10am

Mon Aug 15, 5:10am

Mon Aug 15, 4:10am

Mon Aug 15, 3:10am

Mon Aug 15, 2:10am

Mon Aug 15, 1:10am

Mon Aug 15, 12:10am

Sun Aug 14, 11:10pm

Sun Aug 14, 10:10pm

Sun Aug 14, 9:10pm

Sun Aug 14, 8:10pm

Sun Aug 14, 7:10pm

Sun Aug 14, 6:10pm

Sun Aug 14, 5:10pm

Sun Aug 14, 4:10pm

Sun Aug 14, 3:10pm

Sun Aug 14, 2:10pm

Sun Aug 14, 1:10pm

Sun Aug 14, 12:10pm

Sun Aug 14, 11:10am

Sun Aug 14, 10:10am

Sun Aug 14, 9:10am

Sun Aug 14, 8:10am

Sun Aug 14, 7:10am

Sun Aug 14, 6:10am

Sun Aug 14, 5:10am

Sun Aug 14, 4:10am

Sun Aug 14, 3:10am

Sun Aug 14, 2:10am

Sun Aug 14, 1:10am

Sun Aug 14, 12:10am

Sat Aug 13, 11:10pm

Sat Aug 13, 10:10pm

Sat Aug 13, 9:10pm

Sat Aug 13, 8:10pm

Sat Aug 13, 7:10pm

Sat Aug 13, 6:10pm

Sat Aug 13, 5:10pm

Sat Aug 13, 4:10pm

Sat Aug 13, 3:10pm

Sat Aug 13, 2:10pm

Sat Aug 13, 1:10pm

Sat Aug 13, 12:10pm

Sat Aug 13, 11:10am

Sat Aug 13, 10:10am

Sat Aug 13, 9:10am

Sat Aug 13, 8:10am

Sat Aug 13, 7:10am

Sat Aug 13, 6:10am

Sat Aug 13, 5:10am

Sat Aug 13, 4:10am

Sat Aug 13, 3:10am

Sat Aug 13, 2:10am

Sat Aug 13, 1:10am

Sat Aug 13, 12:10am

Fri Aug 12, 11:10pm

Fri Aug 12, 10:10pm

Fri Aug 12, 9:10pm

Fri Aug 12, 8:10pm

Fri Aug 12, 7:10pm

Fri Aug 12, 6:10pm

Fri Aug 12, 5:10pm

Fri Aug 12, 4:10pm

Fri Aug 12, 3:10pm

Fri Aug 12, 2:10pm

Fri Aug 12, 1:10pm

Fri Aug 12, 12:10pm

Fri Aug 12, 11:10am

Fri Aug 12, 10:10am

Fri Aug 12, 9:10am

Fri Aug 12, 8:10am

Fri Aug 12, 7:10am

Fri Aug 12, 6:10am

Fri Aug 12, 5:10am

Fri Aug 12, 4:10am

Fri Aug 12, 3:10am

Fri Aug 12, 2:10am

Fri Aug 12, 1:10am

Fri Aug 12, 12:10am

Thu Aug 11, 11:10pm

Thu Aug 11, 10:10pm

Thu Aug 11, 9:10pm

Thu Aug 11, 8:10pm

Thu Aug 11, 7:10pm

Thu Aug 11, 6:10pm

Thu Aug 11, 5:10pm

Thu Aug 11, 4:10pm

Thu Aug 11, 3:10pm

Thu Aug 11, 2:10pm

Thu Aug 11, 1:10pm

Thu Aug 11, 12:10pm

Thu Aug 11, 11:10am

Thu Aug 11, 10:10am

Thu Aug 11, 9:10am

Thu Aug 11, 8:10am

Thu Aug 11, 7:10am

Thu Aug 11, 6:10am

Thu Aug 11, 5:10am

Thu Aug 11, 4:10am

Thu Aug 11, 3:10am

Thu Aug 11, 2:10am

Thu Aug 11, 1:10am

Thu Aug 11, 12:10am

Wed Aug 10, 10:10pm

Wed Aug 10, 9:10pm

Wed Aug 10, 8:10pm

Meta data:

ID: 1dfb9826-5bcc-4c03-b865-15d0d5366837
Link: https://api.weather.gov/products/1dfb9826-5bcc-4c03-b865-15d0d5366837